PDT,Max TemperatureF,Mean TemperatureF,Min TemperatureF,Max Dew PointF,MeanDew PointF,Min DewpointF,Max Humidity, Mean Humidity, Min Humidity, Max Sea Level PressureIn, Mean Sea Level PressureIn, Min Sea Level PressureIn, Max VisibilityMiles, Mean VisibilityMiles, Min VisibilityMiles, Max Wind SpeedMPH, Mean Wind SpeedMPH, Max Gust SpeedMPH,PrecipitationIn, CloudCover, Events, WindDirDegrees
2012-8-1,84,59,34,38,28,9,82,44,6,30.33,30.18,30.14,10,10,10,16,3,24,0.00,0,,193
2012-8-2,46,46,43,33,32,31,62,61,60,30.32,30.26,30.16,10,10,10,4,1,,0.00,0,,190
2012-8-3,87,74,57,40,34,25,51,31,10,30.23,30.19,30.14,10,10,10,9,5,37,0.00,0,,15
2012-8-4,87,67,47,54,42,30,78,46,13,30.27,30.01,29.92,10,10,3,29,4,38,0.08,2,Rain,185
2012-8-5,81,65,48,51,41,31,93,55,16,30.19,30.11,30.02,10,10,10,21,4,32,0.01,0,,192
2012-8-6,82,63,44,43,36,31,76,46,16,30.25,30.20,30.17,10,10,10,16,4,24,0.00,0,,188
2012-8-7,85,64,43,42,36,32,76,46,16,30.21,30.14,30.10,10,10,10,18,4,25,0.00,0,,189
2012-8-8,86,67,47,49,41,38,71,45,19,30.15,30.11,30.08,10,10,10,17,2,24,0.00,0,,164
2012-8-9,89,69,48,48,43,41,80,51,21,30.14,30.08,30.04,10,10,10,16,2,24,0.00,0,,112
2012-8-10,86,68,49,50,38,33,71,44,16,30.05,29.99,29.95,10,10,10,20,3,37,0.00,0,,199
2012-8-11,89,67,44,47,41,37,76,47,18,30.05,30.01,29.96,10,10,10,18,3,29,0.00,0,,151
2012-8-12,86,67,48,48,44,40,74,49,23,30.07,30.03,30.00,10,10,10,14,2,23,0.00,2,,63
2012-8-13,83,68,52,55,49,45,89,59,28,30.09,30.04,30.00,10,10,9,20,2,28,0.01,3,Rain,121
2012-8-14,82,64,46,57,49,43,93,65,36,30.19,30.05,29.96,10,10,3,22,3,29,0.06,3,Rain,181
2012-8-15,82,67,51,51,47,42,86,57,28,30.06,29.98,29.94,10,10,10,13,2,22,0.00,3,,186
2012-8-16,85,64,43,45,41,39,89,55,20,30.12,30.07,30.02,10,10,10,20,4,31,0.00,0,,105
2012-8-17,83,66,49,54,45,37,72,47,22,30.29,30.10,30.06,10,10,10,20,3,26,T,2,,120
2012-8-18,79,68,57,54,49,43,56,43,29,30.25,30.07,30.02,10,10,10,15,2,21,0.01,5,Rain,174
2012-8-19,82,66,50,50,41,33,86,53,19,30.21,30.03,29.98,10,10,10,16,3,25,0.00,1,,191
2012-8-20,84,63,42,47,37,31,76,46,15,30.09,30.03,29.99,10,10,10,16,3,24,0.00,0,,179
2012-8-21,80,58,36,35,27,12,76,42,8,30.05,30.00,29.98,10,10,10,18,4,26,0.00,0,,194
2012-8-22,81,65,49,39,32,13,61,36,10,30.18,30.01,29.94,10,10,10,14,2,23,T,2,,50
2012-8-23,82,62,42,37,35,33,76,47,18,30.06,30.00,29.97,10,10,10,17,3,24,0.00,0,,193
2012-8-24,82,63,44,44,38,35,70,46,21,30.18,29.99,29.94,10,10,10,18,3,32,0.00,0,,194
2012-8-25,80,62,44,41,39,37,76,51,25,30.10,29.92,29.86,10,10,10,17,3,24,0.00,1,,202
2012-8-26,75,58,41,41,36,30,76,49,21,30.09,29.95,29.87,10,10,10,18,5,29,0.00,0,,202
2012-8-27,77,54,30,29,18,-4,69,37,5,30.19,30.10,30.03,10,10,10,24,3,35,0.00,0,,212
2012-8-28,78,55,32,28,18,3,51,29,6,30.23,30.11,30.06,10,10,10,17,5,30,0.00,0,,200
2012-8-29,81,58,34,28,24,13,69,39,8,30.12,30.03,29.96,10,10,10,17,3,32,0.00,0,,193
2012-8-30,82,61,39,38,30,24,64,39,13,30.01,29.93,29.87,10,10,10,20,3,30,0.00,0,,208
2012-8-31,76,59,42,32,29,25,53,36,19,29.98,29.90,29.87,10,10,10,22,5,33,0.00,0,,198